Tuesday, November 25, 2014
01:45 UTC
  |  Log In   |  Register Free
Airport Search:

Farmington Regional Airport
(KFAM)

Farmington Regional Airport Diagram
No Airport Diagram Available

FAA data valid effective November 13, 2014 - January 08, 2015 (unless otherwise noted).

 
 
 
 
 
 
 
 
 
 
 
 
 
 

Current Aviation Weather for Farmington Regional Airport (KFAM)

The most recent METAR observation for KFAM was updated at: 0020
METAR Summary (Translated METAR)
KFAM
242355Z AUTO 20005KT 10SM SCT060 05/M03 A2990 RMK AO1 10090 20050 401300030 52037
KSAR
250015Z AUTO 00000KT 10SM OVC080 03/M01 A2992 RMK AO2 T00281010
(41.7 nm NE from KFAM)
KSAR
250015Z AUTO 00000KT 10SM OVC080 03/M01 A2992 RMK AO2 T00281010
(41.7 nm NE from KFAM)
TAF
No TAF information found within 50 nm of KFAM
  Airport Weather Conditions for KFAM

 Current Weather at FAM
39° F
Mostly Cloudy
North winds at 0.0 mph
FAM NOAA Radar

Pressure: 29.93 in
Humidity: 65%
Wind: Calm
Dew Point: 28.4°F
Visibility: 10.00 mi


Airport Weather Forecast for KFAM

Translated METAR and TAF for KFAM
Translated METAR for KFAM (0140 UTC 25 November 2014)
found at http://aviationweather.gov/adds/metars/
 
METAR text: KFAM 250135Z AUTO 00000KT 10SM CLR 04/M02 A2994 RMK AO1
Conditions at: KFAM (FARMINGTON , MO, US) observed 0135 UTC 25 November 2014
Temperature: 4.0°C (39°F)
Dewpoint: -2.0°C (28°F) [RH = 65%]
Pressure (altimeter): 29.94 inches Hg (1014.0 mb)
Winds: calm
Visibility: 10 or more miles (16+ km)
Ceiling: at least 12,000 feet AGL
Clouds: sky clear below 12,000 feet AGL
Weather: automated observation with no human augmentation;
there may or may not be significant weather present at this time
Translated TAF for KFAM

There is no translated TAF available for this airport

Find All Airport Services Find A Hotel Find A Rental Car Find A Golf Course Find A Restaurant $100 Hamburger



FBO's on the Field
FBO Company Facility Photos Services Transportation Aviation Fuel Prices: Prices include tax
Catering Weather Repair Courtesy Rental Type 100LL JetA JetA+ MOGAS 8087
 
Farmington Regional Airport

This FBO has not yet been rated
FS:Shell
Last Updated: Oct-28
Login to update fuel prices
SS:
Contact Farmington Regional AirportMore FBO Information
 
Add another FBO Facility Photos Catering Weather Repair Courtesy Rental Type 100LL JetA JetA+ MOGAS 8087
Services Transportation Aviation Fuel Prices: Prices include tax


model-print
model-print
model-print
model-print